Torna al catalogo

FENGYUN 1C DEB

AttivoSSO
NORAD 30577·DEBRIS·🇨🇳 China

Lanciato May 10, 1999 da Taiyuan Satellite Launch Center

Loading…

Prossimi Passaggi (prossime 24 ore)

TLE

AggiornatoSource: Space-Track

Epoca: Sep 14, 2026, 08:15 UTC

1 30577U 99025ALT 26257.34442670  .00000473  00000-0  28324-3 0  9995
2 30577  98.7436 289.5014 0028673 218.5292 271.4336 14.11553161  6612

Traccia FENGYUN 1C DEB in tempo reale con AllMySat

Download on the App Store